Weather in Poti

Georgia     42°08′35″N   41°40′30″E
temp.,
°C
wind,
m/s
gust,
m/s
humid.,
%
clouds,
%
prec.,
mm/h
press.,
hPa
HPBL,
m
7 march, sun
sun701:00+11w4966100 0.0 1021359
04:00+9wsw4685100 1.5 1021603
07:00+8wsw5991100 5.2 1022682
10:00+7wnw6880100 8.4 1022914
13:00+8w4665100 0.2 1022989
16:00+8sw4560100 0.3 10221133
19:00+6sw3570100 0.0 1023655
22:00+4wnw127496 0.0 1024101
8 march, mon
mon801:00+3ene127847 0.0 102367
04:00+3ne127374 0.0 102144
07:00+3ene1175100 0.0 102050
10:00+4wnw2374100 0.3 1020583
13:00+5sw3378100 0.2 1018611
16:00+6w3372100 0.3 1018744
19:00+5w247795 0.1 1019433
22:00+4nnw118397 0.1 102085
9 march, tue
tue901:00+3e228877 0.0 102177
04:00+2e228884 0.0 102178
07:00+1e229538 0.0 102158
10:00+5ene237820 0.0 1021336
13:00+10wnw12530 0.0 10201156
16:00+9w33540 0.0 1020675
19:00+6wnw24700 0.0 1021160
22:00+4nnw11750 0.0 102477
10 march, wed
wed1001:00+3e22850 0.0 102446
04:00+2e248717 0.0 1023107
07:00+2e487883 0.0 1023217
10:00+6e485363 0.0 1021303
13:00+10e344798 0.0 1019748
16:00+11ese235299 0.0 10181252
19:00+9sse3570100 0.0 1017255
22:00+7e2478100 0.0 1017170
11 march, thu
thu1101:00+6e2776100 0.0 1015464
04:00+5ese3685100 0.1 1014406
07:00+5ne2491100 1.0 1013368
10:00+5nnw3492100 2.9 1013318
13:00+5wnw2493100 3.3 1013428
16:00+5wsw5788100 5.8 1014660
19:00+6sw61076100 0.8 1017924
22:00+5wsw697299 1.1 1020834